When you browse on this site, cookies collect data to enhance your experience and personalize the content and advertising you see.
Visit our Privacy Policy to learn more. By continuing to use the site, you agree to this use of cookies and data.

Hourly Weather Uhersky Brod

Today, 11 July, Saturday

Time Temperature Precipitation Wind Pressure Humidity
00:00 +21°C° 0.3 mm 2 mps 740 mmHg 88%
01:00 +20°C° 0.3 mm 1 mps 741 mmHg 94%
02:00 +19°C° 0.1 mm 2 mps 741 mmHg 95%
03:00 +19°C° 0.1 mm 2 mps 741 mmHg 95%
04:00 +19°C° 0.1 mm 2 mps 741 mmHg 96%
05:00 +19°C° 0.1 mm 2 mps 741 mmHg 94%
06:00 +20°C° 0.1 mm 2 mps 741 mmHg 93%
07:00 +20°C° 0.1 mm 3 mps 741 mmHg 91%
08:00 +20°C° 0.4 mm 3 mps 742 mmHg 90%
09:00 +20°C° 0.4 mm 4 mps 742 mmHg 89%
10:00 +20°C° 0.4 mm 4 mps 742 mmHg 88%
11:00 +17°C° 1.1 mm 5 mps 743 mmHg 88%
12:00 +16°C° 1.1 mm 5 mps 743 mmHg 88%
13:00 +14°C° 1.1 mm 6 mps 743 mmHg 89%
14:00 +14°C° 2.3 mm 5 mps 744 mmHg 91%
15:00 +13°C° 2.3 mm 5 mps 744 mmHg 93%
16:00 +13°C° 2.3 mm 4 mps 744 mmHg 95%
17:00 +12°C° 1.5 mm 4 mps 744 mmHg 95%
18:00 +12°C° 1.5 mm 3 mps 744 mmHg 96%
19:00 +12°C° 1.5 mm 3 mps 744 mmHg 96%
20:00 +12°C° 0.3 mm 3 mps 745 mmHg 96%
21:00 +13°C° 0.3 mm 2 mps 745 mmHg 96%
22:00 +13°C° 0.3 mm 2 mps 745 mmHg 97%
23:00 +12°C° 0 mm 2 mps 745 mmHg 97%

Tomorrow, 12 July, Sunday

Time Temperature Precipitation Wind Pressure Humidity
00:00 +12°C° 0 mm 2 mps 745 mmHg 96%
01:00 +11°C° 0 mm 3 mps 745 mmHg 96%
02:00 +10°C° 0 mm 2 mps 745 mmHg 96%
03:00 +10°C° 0 mm 2 mps 745 mmHg 97%
04:00 +9°C° 0 mm 2 mps 746 mmHg 97%
05:00 +10°C° 0 mm 2 mps 746 mmHg 92%
06:00 +12°C° 0 mm 3 mps 746 mmHg 88%
07:00 +13°C° 0 mm 3 mps 746 mmHg 84%
08:00 +16°C° 0 mm 3 mps 746 mmHg 76%
09:00 +17°C° 0 mm 4 mps 747 mmHg 67%
10:00 +19°C° 0 mm 4 mps 747 mmHg 59%
11:00 +20°C° 0 mm 4 mps 747 mmHg 57%
12:00 +20°C° 0 mm 4 mps 747 mmHg 55%
13:00 +21°C° 0 mm 4 mps 747 mmHg 53%
14:00 +21°C° 0.1 mm 4 mps 747 mmHg 55%
15:00 +21°C° 0.1 mm 4 mps 747 mmHg 58%
16:00 +21°C° 0.1 mm 4 mps 746 mmHg 60%
17:00 +19°C° 0 mm 3 mps 746 mmHg 67%
18:00 +18°C° 0 mm 3 mps 746 mmHg 73%
19:00 +17°C° 0 mm 2 mps 746 mmHg 80%
20:00 +16°C° 0 mm 2 mps 746 mmHg 83%
21:00 +14°C° 0 mm 1 mps 747 mmHg 86%
22:00 +13°C° 0 mm 1 mps 747 mmHg 89%
23:00 +13°C° 0 mm 1 mps 747 mmHg 90%

Day after tomorrow, 13 July, Monday

Time Temperature Precipitation Wind Pressure Humidity
00:00 +12°C° 0 mm 1 mps 747 mmHg 91%
01:00 +12°C° 0 mm 1 mps 747 mmHg 91%
02:00 +11°C° 0 mm 1 mps 747 mmHg 92%
03:00 +11°C° 0 mm 1 mps 746 mmHg 92%
04:00 +11°C° 0 mm 1 mps 746 mmHg 93%
05:00 +12°C° 0 mm 1 mps 746 mmHg 88%
06:00 +14°C° 0 mm 1 mps 746 mmHg 82%
07:00 +16°C° 0 mm 1 mps 746 mmHg 77%
08:00 +17°C° 0 mm 2 mps 746 mmHg 69%
09:00 +19°C° 0 mm 2 mps 746 mmHg 61%
10:00 +20°C° 0 mm 2 mps 746 mmHg 53%
11:00 +21°C° 0 mm 2 mps 746 mmHg 52%
12:00 +23°C° 0 mm 2 mps 746 mmHg 51%
13:00 +22°C° 0 mm 3 mps 745 mmHg 49%
14:00 +22°C° 0 mm 3 mps 745 mmHg 51%
15:00 +22°C° 0 mm 3 mps 745 mmHg 53%
16:00 +22°C° 0 mm 3 mps 744 mmHg 54%
17:00 +20°C° 0 mm 3 mps 744 mmHg 61%
18:00 +19°C° 0 mm 2 mps 744 mmHg 68%
19:00 +17°C° 0 mm 2 mps 744 mmHg 75%
20:00 +16°C° 0 mm 2 mps 744 mmHg 78%
21:00 +15°C° 0 mm 2 mps 744 mmHg 81%
22:00 +13°C° 0 mm 2 mps 744 mmHg 84%
23:00 +13°C° 0 mm 1 mps 744 mmHg 85%

14 July, Tuesday

Time Temperature Precipitation Wind Pressure Humidity
00:00 +13°C° 0 mm 1 mps 744 mmHg 86%
01:00 +12°C° 0 mm 1 mps 744 mmHg 87%
02:00 +12°C° 0 mm 1 mps 744 mmHg 89%
03:00 +11°C° 0 mm 1 mps 743 mmHg 90%
04:00 +11°C° 0 mm 1 mps 743 mmHg 91%
05:00 +13°C° 0 mm 1 mps 743 mmHg 86%
06:00 +15°C° 0 mm 1 mps 743 mmHg 80%
07:00 +16°C° 0 mm 1 mps 743 mmHg 74%
08:00 +19°C° 0 mm 1 mps 743 mmHg 69%
09:00 +21°C° 0 mm 1 mps 743 mmHg 63%
10:00 +23°C° 0 mm 1 mps 743 mmHg 58%
11:00 +23°C° 0 mm 1 mps 743 mmHg 55%
12:00 +24°C° 0 mm 1 mps 743 mmHg 53%
13:00 +24°C° 0 mm 1 mps 742 mmHg 51%
14:00 +24°C° 0 mm 1 mps 742 mmHg 51%
15:00 +24°C° 0 mm 1 mps 742 mmHg 51%
16:00 +24°C° 0 mm 1 mps 741 mmHg 50%
17:00 +23°C° 0 mm 1 mps 741 mmHg 57%
18:00 +20°C° 0 mm 0 mps 741 mmHg 63%
19:00 +18°C° 0 mm 0 mps 741 mmHg 69%
20:00 +17°C° 0 mm 0 mps 741 mmHg 71%
21:00 +18°C° 0 mm 1 mps 741 mmHg 72%
22:00 +16°C° 0 mm 1 mps 741 mmHg 74%
23:00 +16°C° 0 mm 1 mps 741 mmHg 76%

15 July, Wednesday

Time Temperature Precipitation Wind Pressure Humidity
00:00 +15°C° 0 mm 1 mps 741 mmHg 77%
01:00 +15°C° 0 mm 1 mps 741 mmHg 79%
02:00 +15°C° 0 mm 1 mps 741 mmHg 80%
03:00 +15°C° 0 mm 1 mps 740 mmHg 81%
04:00 +15°C° 0 mm 1 mps 740 mmHg 83%
05:00 +16°C° 0 mm 1 mps 740 mmHg 80%
06:00 +17°C° 0 mm 2 mps 740 mmHg 77%
07:00 +18°C° 0 mm 2 mps 741 mmHg 75%
08:00 +20°C° 0 mm 2 mps 740 mmHg 72%
09:00 +21°C° 0 mm 3 mps 740 mmHg 70%
10:00 +22°C° 0 mm 3 mps 740 mmHg 67%
11:00 +24°C° 0.1 mm 3 mps 740 mmHg 64%
12:00 +23°C° 0.1 mm 4 mps 740 mmHg 62%
13:00 +25°C° 0.1 mm 4 mps 740 mmHg 59%
14:00 +23°C° 0.7 mm 4 mps 740 mmHg 66%
15:00 +22°C° 0.7 mm 3 mps 740 mmHg 72%
16:00 +21°C° 0.7 mm 3 mps 740 mmHg 79%
17:00 +20°C° 0.2 mm 3 mps 740 mmHg 82%
18:00 +19°C° 0.2 mm 2 mps 740 mmHg 86%
19:00 +18°C° 0.2 mm 2 mps 740 mmHg 90%
20:00 +17°C° 0 mm 2 mps 741 mmHg 91%
21:00 +17°C° 0 mm 2 mps 741 mmHg 92%
22:00 +16°C° 0 mm 2 mps 741 mmHg 93%
23:00 +16°C° 0 mm 2 mps 741 mmHg 93%

16 July, Thursday

Time Temperature Precipitation Wind Pressure Humidity
00:00 +15°C° 0 mm 2 mps 741 mmHg 93%
01:00 +15°C° 0 mm 2 mps 741 mmHg 94%
02:00 +14°C° 0 mm 2 mps 741 mmHg 94%
03:00 +14°C° 0 mm 2 mps 740 mmHg 93%
04:00 +14°C° 0 mm 1 mps 740 mmHg 93%
05:00 +15°C° 0.1 mm 2 mps 741 mmHg 91%
06:00 +16°C° 0.1 mm 2 mps 741 mmHg 89%
07:00 +17°C° 0.1 mm 3 mps 741 mmHg 87%
08:00 +17°C° 0.2 mm 3 mps 741 mmHg 82%
09:00 +18°C° 0.2 mm 3 mps 741 mmHg 77%
10:00 +19°C° 0.2 mm 4 mps 742 mmHg 73%
11:00 +20°C° 0.2 mm 4 mps 742 mmHg 70%
12:00 +20°C° 0.2 mm 4 mps 742 mmHg 67%
13:00 +21°C° 0.2 mm 5 mps 742 mmHg 64%
14:00 +21°C° 0.2 mm 5 mps 742 mmHg 65%
15:00 +21°C° 0.2 mm 4 mps 741 mmHg 66%
16:00 +21°C° 0.2 mm 4 mps 741 mmHg 67%
17:00 +20°C° 0.1 mm 3 mps 741 mmHg 71%
18:00 +19°C° 0.1 mm 3 mps 741 mmHg 76%
19:00 +18°C° 0.1 mm 2 mps 742 mmHg 80%
20:00 +17°C° 0 mm 2 mps 742 mmHg 82%
21:00 +16°C° 0 mm 1 mps 742 mmHg 85%
22:00 +14°C° 0 mm 1 mps 742 mmHg 87%
23:00 +14°C° 0 mm 1 mps 742 mmHg 88%
Show more